Regional Weather Roundup
Issued by NWS Upton, NY

Current Version | Previous Version | Text Only | Print | Product List | Glossary On
Versions: 1 2 3 4 5 6 7 8 9 10 11 12 13 14 15 16 17 18 19 20 21 22 23 24 25 26 27 28 29 30 31 32 33 34 35 36 37 38 39 40 41 42 43 44 45 46 47 48 49 50
000
ASUS41 KOKX 172205
RWROKX

REGIONAL WEATHER ROUNDUP
NATIONAL WEATHER SERVICE NEW YORK NY
500 PM EST WED DEC 17 2014

NOTE: "FAIR" INDICATES FEW OR NO CLOUDS BELOW 12,000 FEET WITH NO
SIGNIFICANT WEATHER AND/OR OBSTRUCTIONS TO VISIBILITY.

NYZ071-072-176-178-NJZ106-104-172300-
NEW YORK CITY METRO AREA


CITY           SKY/WX    TMP DP  RH WIND       PRES   REMARKS
CENTRAL PARK   CLOUDY    49  36  61 W7        29.87R
LAGUARDIA APRT CLOUDY    48  37  65 NW17      29.84R
KENNEDY INTL   CLOUDY    50  36  58 NW14      29.85R
NEWARK/LIBERTY CLOUDY    50  35  56 W14G22    29.86R
BRNX BOT. GARD   N/A     48  36  61 NW7       29.86R
TETERBORO      CLOUDY    48  37  65 NW10      29.85R
$$

NYZ177-179-078>081-172300-
LONG ISLAND NEW YORK

CITY           SKY/WX    TMP DP  RH WIND       PRES   REMARKS
FARMINGDALE    CLOUDY    50  36  58 NW8G22    29.83R
ISLIP          LGT RAIN  48  38  68 W18G28    29.81R
SHIRLEY        CLOUDY    50  38  63 NW10      29.82R
WESTHAMPTON    CLOUDY    50  39  66 W8        29.82R
MONTAUK POINT    N/A     49  42  77 W7        29.79R
$$

NYZ052-065-067-172300-
HUDSON VALLEY

CITY           SKY/WX    TMP DP  RH WIND       PRES   REMARKS
WHITE PLAINS   MOCLDY    46  35  65 NW16G22   29.82R
NEWBURGH       LGT RAIN  43  36  75 NW12G23   29.85R
MONTGOMERY     CLOUDY    44  33  65 NW8G21    29.84R
POUGHKEEPSIE   CLOUDY    47  33  58 W14       29.83R
ALBANY         LGT RAIN  40  33  76 W8        29.84R WCI  34
$$

NJZ001-105-106-008-010-013-015-019>022-104-172300-
NEW JERSEY

CITY           SKY/WX    TMP DP  RH WIND       PRES   REMARKS
NEWARK/LIBERTY CLOUDY    50  35  56 W14G22    29.86R
TETERBORO      CLOUDY    48  37  65 NW10      29.85R
CALDWELL       CLOUDY    48  35  60 NW10G20   29.86R
MORRISTOWN     NOT AVBL
SOMERVILLE     CLOUDY    48  33  56 VRB6      29.86R
SUSSEX         CLOUDY    45  34  65 VRB5      29.86R
ANDOVER          N/A     44  34  67 W8        29.87R
TRENTON        CLEAR     46  29  51 W13G29    29.90R
MILLVILLE      PTCLDY    47  32  56 W15G23    29.93R
ATLANTIC CITY  MOCLDY    48  33  56 NW17      29.90S
WRIGHTSTOWN    PTCLDY    46  33  61 NW12G20   29.88R
TOMS RIVER     PTCLDY    46  34  61 W9        29.90R
BELMAR         CLOUDY    48  30  49 W13G21    29.87R
$$

PAZ047>061-062-071-172300-
EASTERN PENNSYLVANIA

CITY           SKY/WX    TMP DP  RH WIND       PRES   REMARKS
PHILADELPHIA   MOCLDY    48  30  49 W15       29.94R
ALLENTOWN      CLOUDY    44  30  57 W12       29.91R
SCRANTON       CLOUDY    41  34  76 SW10G18   29.89R
$$

CTZ002-004>006-009-010-012-RIZ004-006-007-MAZ004-011-015-172300-
SOUTHERN NEW ENGLAND
 IN CT

CITY           SKY/WX    TMP DP  RH WIND       PRES   REMARKS
BRADLEY INTL   CLOUDY    47  37  68 NW9       29.78R
HARTFORD       CLOUDY    48  39  71 W7        29.80R
DANBURY        CLOUDY    45  32  60 VRB7      29.82R
WTRBRY/OXFORD  CLOUDY    46  36  66 W13G21    29.79R
BRIDGEPORT     CLOUDY    50  36  58 W15G24    29.80R
MERIDEN        CLOUDY    48  39  71 N5        29.80R
NEW HAVEN      CLOUDY    52  39  61 W8        29.80R
CHESTER        CLOUDY    46  39  76 NW5       29.79R
GROTON         MOCLDY    48  40  73 NW13      29.78R
WILLIMANTIC    CLOUDY    48  38  68 W8        29.77S

 IN RI

CITY           SKY/WX    TMP DP  RH WIND       PRES   REMARKS
PROVIDENCE     MOCLDY    48  38  68 NW10      29.74S
BLOCK ISLAND   PTCLDY    46  39  76 W10G16    29.76R
WESTERLY       PTCLDY    49  39  68 W7        29.77R

 IN MA

CITY           SKY/WX    TMP DP  RH WIND       PRES   REMARKS
BOSTON         MOCLDY    48  40  73 W16G23    29.71R
WORCESTER      CLOUDY    41  37  86 W16       29.71F
WESTFIELD      CLOUDY    46  36  68 W10       29.78R
PROVINCETOWN   PTCLDY    46  41  81 W15       29.70R
NANTUCKET      CLOUDY    47  43  86 W9        29.71R
$$

ANZ330-335-338-340-345-350-353-355-172300-
COASTAL MARINE OBSERVATIONS


STATION/POSITION TIME  SKY/WX   TEMP    WIND        PRES    VSBY  WAVE
                                AIR SEA DIR/SP/G                  HT/PER
                 (UTC)          (F)     (DEG/KT/KT) (MB)    (MI)  (FT/S)
NY HARB ENTRANCE 2200            49 46  280/ 19/ 21 1010.7          3/ 3
4S FIRE IS       2200               46                N/A           3/ 4
20S FIRE ISLAND  2100            50 50              1009.8          4/ 4
23SW MTP         2200                                 N/A           4/ 5
HUDSON CANYON    2200            52 56  300/ 25/ 31 1009.6          6/ 6
EXECUTION ROCKS  2200            48 42  290/ 16/ 23   N/A
WESTERN LI SOUND 2200            47     280/ 14/ 16   N/A           1/ 3
CENTRAL LI SOUND 2200            47 45  300/ 10/ 12   N/A           1
EASTERN LI SOUND NOT AVBL
ROBBINS REEF     2200            50     300/ 16/ 20 1009.5
$$


>>>>>>>>>>>>>>>>>>>>>>>>>>>> KEY <<<<<<<<<<<<<<<<<<<<<<<<<<<
>                                                          <
>     SKY/WX - SKY CONDITION/PRESENT WEATHER               <
>     TMP    - TEMPERATURE IN FAHRENHEIT                   <
>     DP     - DEWPOINT IN FAHRENHEIT                      <
>     RH     - RELATIVE HUMIDITY IN PERCENT                <
>     WIND   - DIRECTION AND SPEED IN MPH                  <
>     PRES   - MEAN SEA LEVEL PRESSURE IN INCHES OF HG     <
>     WCI    - WIND CHILL INDEX                            <
>     VSB    - VISIBILITY IN MILES                         <
>     HX     - HEAT INDEX                                  <
>     TC     - TEMPERATURE IN CELSIUS                      <
>     VRB    - VARIABLE WIND DIRECTION                     <
>                                                          <
>>>>>>>>>>>>>>>>>>>>>>>>>>>> KEY <<<<<<<<<<<<<<<<<<<<<<<<<<<




USA.gov is the U.S. government's official web portal to all federal, state and local government web resources and services.